Tracking 18980 objects as of 19-Feb-2018
HD Live streaming from Space Station
objects crossing your sky now

FENGYUN 1C DEB

Track FENGYUN 1C DEB now!
10-day predictions


NORAD ID: 30640
Int'l Code: 1999-025ANX
Perigee: 821.9 km
Apogee: 957.0 km
Inclination: 99.2 °
Period: 102.6 minutes
Semi major axis: 7260 km
RCS: 0.018 m2 (small)
Launch date: May 10, 1999
Source: People's Republic of China (PRC)
Launch site: Taiyaun Space Center, China (TSC)

Note: This is SATELLITE DEBRIS
aabbcc
Your satellite tracking list
Your tracking list is empty




NASA's NSSDC Master Catalog

Two Line Element Set (TLE):
1 30640U 99025ANX 18049.94725503 +.00000471 +00000-0 +31817-3 0  9990
2 30640 099.2252 047.3745 0093064 110.4403 303.7201 14.03314061563282
Source of the keplerian elements: AFSPC